TUI249 LTAI-EDDM

Flight info

Callsign TUI249
Flight time N/A
Altitude 36000
Route EKNUD1F/36R EKNUD UQ26 DIGBO UL615 VADEN Y520 OSTEX DCT UTEKA DCT DONIV DCT BABIT DCT GOTAR DCT AMADI Q113 NAPSA NAPSA4A
Aircraft B738/M-SDE2E3FGHIRWXY/LB1

Departure

Time 2026-05-04 17:07
Airport Antalya International Airport (LTAI)

Arrival

Time N/A
Airport Munich Airport (EDDM)
Time Latitude Longitude Altitude Speed Heading
2026-05-04 16:30 36.89976 30.80529 175 ft 0 kts 278°
2026-05-04 16:53 36.89975 30.80533 175 ft 2 kts 279°
2026-05-04 16:53 36.89968 30.80588 175 ft 2 kts 278°
2026-05-04 16:54 36.89967 30.80606 175 ft 1 kts 278°
2026-05-04 16:55 36.89986 30.80636 175 ft 0 kts 186°
2026-05-04 17:00 36.89914 30.80624 174 ft 7 kts 187°
2026-05-04 17:00 36.89774 30.80667 172 ft 8 kts 99°
2026-05-04 17:01 36.89672 30.80703 171 ft 8 kts 186°
2026-05-04 17:01 36.89565 30.80688 172 ft 7 kts 187°
2026-05-04 17:02 36.89436 30.80670 172 ft 10 kts 186°
2026-05-04 17:02 36.89298 30.80651 172 ft 12 kts 187°
2026-05-04 17:03 36.89211 30.80637 173 ft 12 kts 185°
2026-05-04 17:03 36.89130 30.80627 173 ft 12 kts 185°
2026-05-04 17:03 36.88919 30.80600 174 ft 17 kts 186°
2026-05-04 17:04 36.88699 30.80568 171 ft 15 kts 186°
2026-05-04 17:04 36.88488 30.80539 168 ft 14 kts 186°
2026-05-04 17:05 36.88303 30.80514 168 ft 12 kts 186°
2026-05-04 17:05 36.88150 30.80534 162 ft 10 kts 107°
2026-05-04 17:06 36.88152 30.80718 161 ft 10 kts 45°
2026-05-04 17:06 36.88209 30.80739 162 ft 3 kts
2026-05-04 17:07 36.88442 30.80768 163 ft 67 kts
2026-05-04 17:07 36.88622 30.80793 168 ft 87 kts
2026-05-04 17:07 36.90137 30.81009 177 ft 171 kts
2026-05-04 17:07 36.91286 30.81220 788 ft 165 kts
2026-05-04 17:08 36.92399 30.81576 1427 ft 172 kts 17°
2026-05-04 17:08 36.94665 30.82812 2413 ft 189 kts 17°
2026-05-04 17:08 36.95917 30.83417 2926 ft 197 kts 17°
2026-05-04 17:09 36.97216 30.84053 3494 ft 204 kts 18°
2026-05-04 17:09 36.98545 30.84714 4173 ft 205 kts 19°
2026-05-04 17:09 36.99872 30.85368 4757 ft 210 kts 18°
2026-05-04 17:10 37.02776 30.86777 5693 ft 231 kts 19°
2026-05-04 17:10 37.07355 30.88867 7549 ft 238 kts
2026-05-04 17:11 37.09047 30.88822 8052 ft 246 kts 349°
2026-05-04 17:11 37.10706 30.88333 8477 ft 257 kts 346°
2026-05-04 17:11 37.14261 30.87799 9634 ft 268 kts 359°
2026-05-04 17:12 37.16113 30.87782 10332 ft 268 kts 358°
2026-05-04 17:12 37.20078 30.87616 10947 ft 300 kts 356°
2026-05-04 17:13 37.26649 30.87153 12588 ft 321 kts 355°
2026-05-04 17:14 37.33432 30.86674 14659 ft 329 kts 354°
2026-05-04 17:14 37.35717 30.86513 15295 ft 333 kts 354°
2026-05-04 17:14 37.40347 30.86187 16668 ft 336 kts 354°
2026-05-04 17:15 37.42713 30.86020 17348 ft 337 kts 354°
2026-05-04 17:15 37.47437 30.85685 18585 ft 342 kts 354°
2026-05-04 17:16 37.52274 30.85345 19781 ft 347 kts 354°
2026-05-04 17:16 37.59604 30.84825 21413 ft 356 kts 355°
2026-05-04 17:17 37.62105 30.84648 22005 ft 357 kts 355°
2026-05-04 17:17 37.69648 30.84112 23495 ft 366 kts 355°
2026-05-04 17:18 37.72207 30.83929 24005 ft 367 kts 355°
2026-05-04 17:18 37.77367 30.83561 24879 ft 373 kts 355°
2026-05-04 17:19 37.82585 30.83190 25768 ft 377 kts 355°
2026-05-04 17:19 37.87888 30.82812 26551 ft 383 kts 356°
2026-05-04 17:20 37.93237 30.82431 27335 ft 388 kts 356°
2026-05-04 17:20 37.98685 30.82042 28043 ft 394 kts 356°
2026-05-04 17:20 38.01421 30.81845 28424 ft 395 kts 356°
2026-05-04 17:21 38.06963 30.81450 29149 ft 399 kts 356°
2026-05-04 17:21 38.12234 30.81072 29823 ft 402 kts 356°
2026-05-04 17:22 38.14957 30.80823 30152 ft 404 kts 354°
2026-05-04 17:22 38.17763 30.80427 30471 ft 406 kts 353°
2026-05-04 17:23 38.26178 30.78939 31624 ft 404 kts 352°
2026-05-04 17:23 38.28969 30.78445 32082 ft 401 kts 352°
2026-05-04 17:23 38.33910 30.77594 32640 ft 401 kts 352°
2026-05-04 17:24 38.36603 30.77139 32951 ft 401 kts 352°
2026-05-04 17:24 38.44918 30.75751 33741 ft 403 kts 352°
2026-05-04 17:25 38.47706 30.75287 33977 ft 403 kts 352°
2026-05-04 17:25 38.53269 30.74363 34484 ft 404 kts 352°
2026-05-04 17:26 38.58882 30.73428 34824 ft 407 kts 352°
2026-05-04 17:26 38.67336 30.72023 35545 ft 406 kts 352°
2026-05-04 17:27 38.72954 30.71086 35892 ft 408 kts 352°
2026-05-04 17:28 38.84281 30.68866 35952 ft 408 kts 345°
2026-05-04 17:29 38.92211 30.64683 35968 ft 411 kts 334°
2026-05-04 17:29 38.99840 30.59622 35956 ft 411 kts 334°
2026-05-04 17:31 39.11886 30.51667 35968 ft 411 kts 334°
2026-05-04 17:32 39.23914 30.43774 35965 ft 411 kts 334°
2026-05-04 17:33 39.34110 30.37065 35959 ft 410 kts 335°
2026-05-04 17:34 39.44275 30.30352 35959 ft 411 kts 334°
2026-05-04 17:35 39.57224 30.22495 35963 ft 411 kts 340°
2026-05-04 17:36 39.62520 30.19775 35690 ft 411 kts 339°
2026-05-04 17:36 39.65169 30.18402 35909 ft 407 kts 340°
2026-05-04 17:36 39.67804 30.17025 35969 ft 410 kts 339°
2026-05-04 17:37 39.73138 30.14209 36132 ft 418 kts 339°
2026-05-04 17:37 39.75819 30.12781 35890 ft 409 kts 339°
2026-05-04 17:37 39.78440 30.11379 35965 ft 411 kts 339°
2026-05-04 17:38 39.83793 30.08508 35981 ft 418 kts 339°
2026-05-04 17:38 39.89144 30.05631 35982 ft 415 kts 339°
2026-05-04 17:39 39.97169 30.01303 35999 ft 415 kts 339°
2026-05-04 17:39 40.02322 29.98519 36006 ft 417 kts 339°
2026-05-04 17:40 40.07698 29.95611 36007 ft 417 kts 340°
2026-05-04 17:40 40.13032 29.92720 36006 ft 417 kts 340°
2026-05-04 17:41 40.18416 29.89797 36035 ft 417 kts 340°
2026-05-04 17:41 40.23754 29.86893 36036 ft 415 kts 340°
2026-05-04 17:42 40.29064 29.83999 36039 ft 414 kts 340°
2026-05-04 17:42 40.34398 29.81086 36040 ft 415 kts 340°
2026-05-04 17:43 40.39723 29.78176 36036 ft 415 kts 340°
2026-05-04 17:43 40.45069 29.75249 36014 ft 413 kts 340°
2026-05-04 17:44 40.50371 29.72341 36019 ft 414 kts 340°
2026-05-04 17:44 40.55683 29.69422 36030 ft 412 kts 340°
2026-05-04 17:45 40.60970 29.66510 36035 ft 413 kts 340°
2026-05-04 17:45 40.66150 29.63166 36028 ft 416 kts 332°
2026-05-04 17:46 40.70899 29.58808 36030 ft 418 kts 327°
2026-05-04 17:46 40.75460 29.54024 36035 ft 421 kts 325°
2026-05-04 17:47 40.79994 29.49164 36035 ft 419 kts 325°
2026-05-04 17:47 40.84538 29.44314 36033 ft 421 kts 326°
2026-05-04 17:48 40.89107 29.39456 36034 ft 421 kts 326°
2026-05-04 17:48 40.93633 29.34644 36034 ft 419 kts 325°
2026-05-04 17:49 40.98219 29.29769 36036 ft 420 kts 326°
2026-05-04 17:49 41.02751 29.24944 36037 ft 419 kts 326°
2026-05-04 17:50 41.07306 29.20087 36043 ft 419 kts 326°
2026-05-04 17:50 41.11701 29.15014 36039 ft 422 kts 319°
2026-05-04 17:51 41.15481 29.08965 36049 ft 430 kts 310°
2026-05-04 17:51 41.18850 29.02374 36038 ft 430 kts 308°
2026-05-04 17:52 41.22110 28.95722 36034 ft 431 kts 308°
2026-05-04 17:52 41.25370 28.89081 36036 ft 429 kts 308°
2026-05-04 17:53 41.28645 28.82455 36034 ft 430 kts 309°
2026-05-04 17:53 41.31933 28.75823 36036 ft 430 kts 309°
2026-05-04 17:54 41.35191 28.69245 36038 ft 429 kts 309°
2026-05-04 17:54 41.38509 28.62541 36031 ft 431 kts 309°
2026-05-04 17:55 41.41824 28.55824 36035 ft 430 kts 308°
2026-05-04 17:55 41.45124 28.49124 36042 ft 430 kts 308°
2026-05-04 17:56 41.48434 28.42388 36042 ft 430 kts 308°
2026-05-04 17:56 41.51761 28.35605 36043 ft 430 kts 308°
2026-05-04 17:57 41.54767 28.29464 36038 ft 430 kts 308°
2026-05-04 17:57 41.58049 28.22747 36042 ft 431 kts 308°
2026-05-04 17:58 41.61325 28.16031 36048 ft 432 kts 308°
2026-05-04 17:58 41.64599 28.09302 36046 ft 431 kts 308°
2026-05-04 17:59 41.67850 28.02601 36035 ft 431 kts 308°
2026-05-04 18:00 41.72728 27.92522 36044 ft 431 kts 308°
2026-05-04 18:00 41.75994 27.85754 36051 ft 430 kts 307°
2026-05-04 18:01 41.79199 27.79041 36043 ft 431 kts 306°
2026-05-04 18:01 41.82260 27.72095 36041 ft 432 kts 304°
2026-05-04 18:02 41.86706 27.61604 36043 ft 432 kts 304°
2026-05-04 18:02 41.89675 27.54600 36057 ft 432 kts 304°
2026-05-04 18:03 41.92643 27.47613 36064 ft 432 kts 304°
2026-05-04 18:03 41.95615 27.40617 36066 ft 431 kts 304°
2026-05-04 18:04 41.98581 27.33628 36065 ft 431 kts 303°
2026-05-04 18:05 42.03011 27.23157 36060 ft 431 kts 303°
2026-05-04 18:05 42.05981 27.16115 36069 ft 430 kts 303°
2026-05-04 18:06 42.10371 27.05682 36071 ft 430 kts 303°
2026-05-04 18:06 42.13192 26.98955 36069 ft 429 kts 303°
2026-05-04 18:07 42.16127 26.91941 36073 ft 429 kts 303°
2026-05-04 18:07 42.19054 26.84928 36071 ft 428 kts 303°
2026-05-04 18:08 42.21962 26.77949 36079 ft 429 kts 303°
2026-05-04 18:08 42.24866 26.70957 36071 ft 427 kts 303°
2026-05-04 18:09 42.30668 26.56943 36073 ft 427 kts 302°
2026-05-04 18:10 42.33553 26.49949 36068 ft 427 kts 302°
2026-05-04 18:10 42.36440 26.42935 36066 ft 428 kts 302°
2026-05-04 18:11 42.39316 26.35929 36064 ft 428 kts 302°
2026-05-04 18:11 42.42206 26.28873 36068 ft 427 kts 302°
2026-05-04 18:12 42.45061 26.21885 36068 ft 426 kts 301°
2026-05-04 18:12 42.47928 26.14851 36076 ft 428 kts 301°
2026-05-04 18:13 42.50812 26.07760 36079 ft 428 kts 301°
2026-05-04 18:14 42.55099 25.97187 36085 ft 428 kts 301°
2026-05-04 18:14 42.57960 25.90112 36098 ft 427 kts 301°
2026-05-04 18:15 42.63657 25.75956 36101 ft 426 kts 301°
2026-05-04 18:16 42.66480 25.68918 36104 ft 426 kts 301°
2026-05-04 18:16 42.69315 25.61837 36108 ft 426 kts 301°
2026-05-04 18:17 42.73540 25.51250 36109 ft 425 kts 301°
2026-05-04 18:18 42.77776 25.40596 36109 ft 426 kts 301°
2026-05-04 18:18 42.80578 25.33523 36108 ft 427 kts 300°
2026-05-04 18:19 42.84452 25.23719 36115 ft 426 kts 300°
2026-05-04 18:19 42.87263 25.16587 36112 ft 426 kts 300°
2026-05-04 18:20 42.90048 25.09503 36112 ft 426 kts 299°
2026-05-04 18:20 42.92855 25.02343 36104 ft 428 kts 300°
2026-05-04 18:21 42.95651 24.95192 36101 ft 427 kts 300°
2026-05-04 18:21 42.98436 24.88052 36100 ft 427 kts 300°
2026-05-04 18:22 43.01222 24.80890 36098 ft 426 kts 300°
2026-05-04 18:22 43.03997 24.73741 36106 ft 426 kts 300°
2026-05-04 18:23 43.06765 24.66596 36097 ft 425 kts 300°
2026-05-04 18:23 43.09524 24.59453 36095 ft 425 kts 300°
2026-05-04 18:24 43.12135 24.52675 36093 ft 425 kts 300°
2026-05-04 18:24 43.14856 24.45595 36091 ft 424 kts 300°
2026-05-04 18:25 43.17596 24.38447 36088 ft 424 kts 300°
2026-05-04 18:25 43.20320 24.31324 36083 ft 423 kts 299°
2026-05-04 18:26 43.23050 24.24168 36087 ft 422 kts 299°
2026-05-04 18:26 43.25698 24.17209 36084 ft 422 kts 299°
2026-05-04 18:27 43.28397 24.10102 36084 ft 423 kts 299°
2026-05-04 18:27 43.31104 24.02952 36081 ft 423 kts 298°
2026-05-04 18:28 43.33802 23.95804 36079 ft 423 kts 298°
2026-05-04 18:28 43.36500 23.88640 36080 ft 422 kts 298°
2026-05-04 18:29 43.39201 23.81455 36078 ft 423 kts 298°
2026-05-04 18:29 43.41895 23.74269 36070 ft 423 kts 298°
2026-05-04 18:30 43.45926 23.63477 36066 ft 423 kts 298°
2026-05-04 18:31 43.48616 23.56254 36077 ft 424 kts 298°
2026-05-04 18:31 43.51291 23.49051 36074 ft 423 kts 298°
2026-05-04 18:32 43.53960 23.41848 36072 ft 422 kts 299°
2026-05-04 18:32 43.56621 23.34649 36068 ft 423 kts 298°
2026-05-04 18:33 43.59287 23.27416 36074 ft 424 kts 298°
2026-05-04 18:33 43.61965 23.20134 36080 ft 425 kts 298°
2026-05-04 18:34 43.64635 23.12850 36074 ft 425 kts 298°
2026-05-04 18:34 43.67292 23.05585 36069 ft 425 kts 298°
2026-05-04 18:35 43.69942 22.98323 36070 ft 423 kts 298°
2026-05-04 18:35 43.72575 22.91084 36067 ft 424 kts 298°
2026-05-04 18:36 43.75227 22.83773 36075 ft 424 kts 298°
2026-05-04 18:36 43.77874 22.76460 36061 ft 425 kts 299°
2026-05-04 18:37 43.80498 22.69187 36074 ft 424 kts 299°
2026-05-04 18:37 43.83114 22.61919 36079 ft 423 kts 299°
2026-05-04 18:38 43.85727 22.54640 36085 ft 422 kts 299°
2026-05-04 18:38 43.88338 22.47342 36085 ft 422 kts 299°
2026-05-04 18:39 43.91152 22.40196 36075 ft 418 kts 309°
2026-05-04 18:39 43.93221 22.37415 36083 ft 413 kts 330°
2026-05-04 18:39 43.95867 22.35859 36099 ft 411 kts 347°
2026-05-04 18:40 44.01235 22.34754 36085 ft 411 kts 353°
2026-05-04 18:40 44.06753 22.32891 36081 ft 411 kts 333°
2026-05-04 18:40 44.09075 22.30547 36093 ft 416 kts 318°
2026-05-04 18:41 44.10936 22.27733 36095 ft 418 kts 311°
2026-05-04 18:41 44.14459 22.21258 36098 ft 418 kts 308°
2026-05-04 18:42 44.18007 22.14823 36103 ft 417 kts 311°
2026-05-04 18:42 44.21688 22.08568 36103 ft 417 kts 312°
2026-05-04 18:43 44.25373 22.02283 36108 ft 417 kts 311°
2026-05-04 18:43 44.29004 21.96008 36109 ft 417 kts 311°
2026-05-04 18:44 44.32619 21.89699 36111 ft 417 kts 311°
2026-05-04 18:44 44.36226 21.83369 36109 ft 417 kts 311°
2026-05-04 18:45 44.39822 21.77035 36107 ft 416 kts 311°
2026-05-04 18:45 44.43417 21.70688 36107 ft 416 kts 311°
2026-05-04 18:46 44.47000 21.64348 36104 ft 416 kts 311°
2026-05-04 18:46 44.50603 21.57958 36103 ft 416 kts 311°
2026-05-04 18:47 44.54173 21.51613 36101 ft 416 kts 311°
2026-05-04 18:47 44.57747 21.45246 36098 ft 415 kts 311°
2026-05-04 18:48 44.61312 21.38881 36096 ft 415 kts 311°
2026-05-04 18:48 44.64878 21.32501 36091 ft 415 kts 310°
2026-05-04 18:49 44.68436 21.26120 36087 ft 415 kts 310°
2026-05-04 18:49 44.72027 21.19665 36085 ft 415 kts 310°
2026-05-04 18:50 44.75608 21.13215 36085 ft 416 kts 310°
2026-05-04 18:50 44.79091 21.06928 36078 ft 415 kts 310°
2026-05-04 18:51 44.82642 21.00503 36079 ft 414 kts 310°
2026-05-04 18:51 44.86172 20.94101 36075 ft 414 kts 310°
2026-05-04 18:52 44.89734 20.87628 36074 ft 415 kts 310°
2026-05-04 18:52 44.93261 20.81207 36073 ft 414 kts 310°
2026-05-04 18:53 44.96764 20.74811 36071 ft 414 kts 310°
2026-05-04 18:53 45.00292 20.68358 36069 ft 415 kts 310°
2026-05-04 18:54 45.03812 20.61902 36066 ft 415 kts 310°
2026-05-04 18:54 45.07314 20.55464 36063 ft 414 kts 310°
2026-05-04 18:55 45.10821 20.49004 36069 ft 414 kts 310°
2026-05-04 18:55 45.16064 20.39321 36066 ft 415 kts 310°
2026-05-04 18:56 45.19573 20.32819 36062 ft 415 kts 309°
2026-05-04 18:56 45.23081 20.26302 36059 ft 415 kts 309°
2026-05-04 18:57 45.26575 20.19799 36054 ft 414 kts 309°
2026-05-04 18:57 45.30041 20.13334 36054 ft 414 kts 309°
2026-05-04 18:58 45.33528 20.06814 36055 ft 414 kts 309°
2026-05-04 18:58 45.37013 20.00284 36053 ft 414 kts 309°
2026-05-04 18:59 45.40382 19.93958 36054 ft 414 kts 309°
2026-05-04 18:59 45.43842 19.87446 36053 ft 414 kts 309°
2026-05-04 19:00 45.47299 19.80924 36055 ft 414 kts 309°
2026-05-04 19:00 45.50797 19.74308 36052 ft 413 kts 309°
2026-05-04 19:01 45.54270 19.67727 36056 ft 413 kts 309°
2026-05-04 19:01 45.57716 19.61181 36054 ft 413 kts 309°
2026-05-04 19:02 45.61161 19.54621 36055 ft 413 kts 309°
2026-05-04 19:02 45.64607 19.48044 36056 ft 414 kts 309°
2026-05-04 19:03 45.68057 19.41440 36051 ft 414 kts 308°
2026-05-04 19:03 45.71477 19.34802 36053 ft 415 kts 306°
2026-05-04 19:04 45.74606 19.27820 36051 ft 416 kts 303°
2026-05-04 19:04 45.77591 19.20735 36052 ft 415 kts 302°
2026-05-04 19:05 45.80577 19.13666 36051 ft 415 kts 303°
2026-05-04 19:05 45.83585 19.06610 36049 ft 415 kts 303°
2026-05-04 19:06 45.86589 18.99593 36052 ft 416 kts 303°
2026-05-04 19:06 45.89658 18.92432 36052 ft 426 kts 303°
2026-05-04 19:07 45.92764 18.85168 36048 ft 428 kts 303°
2026-05-04 19:07 45.95863 18.77899 36046 ft 427 kts 303°
2026-05-04 19:08 45.98966 18.70604 36045 ft 427 kts 303°
2026-05-04 19:08 46.02061 18.63310 36045 ft 427 kts 303°
2026-05-04 19:09 46.05157 18.55994 36043 ft 427 kts 303°
2026-05-04 19:09 46.08229 18.48717 36045 ft 427 kts 303°
2026-05-04 19:10 46.11298 18.41429 36040 ft 427 kts 303°
2026-05-04 19:10 46.14364 18.34127 36039 ft 427 kts 302°
2026-05-04 19:11 46.17426 18.26817 36040 ft 428 kts 302°
2026-05-04 19:11 46.20478 18.19508 36045 ft 427 kts 302°
2026-05-04 19:12 46.25055 18.08514 36048 ft 426 kts 302°
2026-05-04 19:13 46.28103 18.01169 36047 ft 426 kts 302°
2026-05-04 19:13 46.31135 17.93843 36047 ft 427 kts 302°
2026-05-04 19:14 46.34185 17.86456 36036 ft 428 kts 302°
2026-05-04 19:14 46.37206 17.79116 36039 ft 427 kts 302°
2026-05-04 19:15 46.40243 17.71720 36034 ft 426 kts 302°
2026-05-04 19:15 46.43261 17.64352 36023 ft 427 kts 302°
2026-05-04 19:16 46.46269 17.56985 36021 ft 425 kts 302°
2026-05-04 19:16 46.49276 17.49602 36020 ft 426 kts 302°
2026-05-04 19:17 46.52298 17.42164 36012 ft 426 kts 302°
2026-05-04 19:17 46.55288 17.34785 36015 ft 426 kts 301°
2026-05-04 19:18 46.58270 17.27404 36010 ft 426 kts 301°
2026-05-04 19:18 46.61264 17.19974 35999 ft 426 kts 301°
2026-05-04 19:19 46.64267 17.12502 35995 ft 426 kts 301°
2026-05-04 19:19 46.67229 17.05110 35987 ft 426 kts 301°
2026-05-04 19:20 46.70229 16.97605 35987 ft 428 kts 301°
2026-05-04 19:20 46.73211 16.90123 35982 ft 427 kts 301°
2026-05-04 19:21 46.76167 16.82685 35980 ft 426 kts 301°
2026-05-04 19:21 46.79113 16.75253 35981 ft 427 kts 300°
2026-05-04 19:22 46.82082 16.67745 35978 ft 426 kts 300°
2026-05-04 19:22 46.85039 16.60244 35978 ft 427 kts 300°
2026-05-04 19:23 46.88016 16.52667 35973 ft 428 kts 300°
2026-05-04 19:23 46.90944 16.45177 35972 ft 427 kts 300°
2026-05-04 19:24 46.93895 16.37638 35974 ft 428 kts 300°
2026-05-04 19:24 46.96685 16.30485 35962 ft 428 kts 299°
2026-05-04 19:25 46.99635 16.22913 35961 ft 419 kts 299°
2026-05-04 19:25 47.02355 16.15502 35964 ft 413 kts 296°
2026-05-04 19:26 47.04971 16.07937 35959 ft 417 kts 296°
2026-05-04 19:26 47.07571 16.00389 35960 ft 416 kts 296°
2026-05-04 19:27 47.10178 15.92847 35854 ft 412 kts 296°
2026-05-04 19:27 47.11365 15.89422 35622 ft 404 kts 296°
2026-05-04 19:27 47.12637 15.85751 35373 ft 396 kts 296°
2026-05-04 19:27 47.13882 15.82156 35124 ft 388 kts 296°
2026-05-04 19:28 47.15084 15.78682 34879 ft 380 kts 296°
2026-05-04 19:28 47.16265 15.75263 34627 ft 377 kts 296°
2026-05-04 19:28 47.17446 15.71840 34350 ft 380 kts 296°
2026-05-04 19:28 47.18654 15.68331 34071 ft 384 kts 296°
2026-05-04 19:29 47.19857 15.64837 33793 ft 385 kts 296°
2026-05-04 19:29 47.21061 15.61334 33513 ft 386 kts 296°
2026-05-04 19:29 47.22264 15.57830 33233 ft 386 kts 296°
2026-05-04 19:29 47.23469 15.54319 32956 ft 386 kts 296°
2026-05-04 19:30 47.24672 15.50807 32680 ft 387 kts 296°
2026-05-04 19:30 47.25882 15.47270 32401 ft 389 kts 296°
2026-05-04 19:30 47.27092 15.43728 32125 ft 389 kts 296°
2026-05-04 19:30 47.28305 15.40172 31848 ft 390 kts 296°
2026-05-04 19:31 47.29505 15.36648 31573 ft 390 kts 296°
2026-05-04 19:31 47.30651 15.33280 31315 ft 392 kts 296°
2026-05-04 19:31 47.31845 15.29764 31046 ft 391 kts 295°
2026-05-04 19:31 47.33062 15.26179 30771 ft 392 kts 295°
2026-05-04 19:32 47.34272 15.22609 30501 ft 393 kts 295°
2026-05-04 19:32 47.35496 15.18992 30229 ft 394 kts 295°
2026-05-04 19:32 47.36694 15.15449 30009 ft 394 kts 296°
2026-05-04 19:33 47.39104 15.08301 30009 ft 397 kts 296°
2026-05-04 19:33 47.41548 15.01031 30010 ft 398 kts 295°
2026-05-04 19:34 47.44001 14.93717 30009 ft 398 kts 295°
2026-05-04 19:34 47.46432 14.86447 30014 ft 398 kts 295°
2026-05-04 19:35 47.48786 14.79386 30009 ft 398 kts 295°
2026-05-04 19:35 47.51214 14.72084 30005 ft 399 kts 295°
2026-05-04 19:36 47.53654 14.64727 30002 ft 397 kts 295°
2026-05-04 19:36 47.56081 14.57389 29993 ft 398 kts 295°
2026-05-04 19:37 47.58507 14.50028 29981 ft 399 kts 295°
2026-05-04 19:37 47.60938 14.42636 29975 ft 399 kts 295°
2026-05-04 19:38 47.63351 14.35276 29979 ft 399 kts 295°
2026-05-04 19:38 47.65729 14.28000 29962 ft 400 kts 295°
2026-05-04 19:39 47.68153 14.20573 29960 ft 400 kts 295°
2026-05-04 19:39 47.70583 14.13101 29963 ft 401 kts 295°
2026-05-04 19:40 47.73001 14.05641 29974 ft 400 kts 295°
2026-05-04 19:40 47.75399 13.98222 29982 ft 400 kts 295°
2026-05-04 19:41 47.77813 13.90731 29973 ft 397 kts 295°
2026-05-04 19:41 47.78991 13.87072 29970 ft 386 kts 295°
2026-05-04 19:41 47.80136 13.83508 29731 ft 379 kts 295°
2026-05-04 19:41 47.81250 13.80035 29343 ft 374 kts 294°
2026-05-04 19:42 47.82379 13.76508 28865 ft 372 kts 294°
2026-05-04 19:42 47.83489 13.73034 28384 ft 369 kts 294°
2026-05-04 19:42 47.84585 13.69598 27901 ft 367 kts 294°
2026-05-04 19:42 47.85670 13.66191 27413 ft 365 kts 294°
2026-05-04 19:43 47.86742 13.62825 26933 ft 363 kts 294°
2026-05-04 19:43 47.87820 13.59436 26476 ft 360 kts 294°
2026-05-04 19:43 47.88878 13.56102 26004 ft 358 kts 294°
2026-05-04 19:43 47.89946 13.52734 25528 ft 355 kts 294°
2026-05-04 19:44 47.90995 13.49422 25077 ft 353 kts 294°
2026-05-04 19:44 47.92029 13.46151 24609 ft 350 kts 294°
2026-05-04 19:44 47.93079 13.42828 24141 ft 348 kts 294°
2026-05-04 19:44 47.94096 13.39605 23690 ft 345 kts 294°
2026-05-04 19:45 47.95130 13.36318 23234 ft 342 kts 294°
2026-05-04 19:45 47.96131 13.33136 22807 ft 339 kts 294°
2026-05-04 19:45 47.97028 13.30282 22396 ft 338 kts 293°
2026-05-04 19:45 47.97813 13.27779 22034 ft 337 kts 293°
2026-05-04 19:46 47.98539 13.25464 21714 ft 335 kts 293°
2026-05-04 19:46 47.99527 13.22270 21269 ft 332 kts 293°
2026-05-04 19:46 48.00510 13.19118 20815 ft 331 kts 293°
2026-05-04 19:46 48.01490 13.15991 20305 ft 334 kts 293°
2026-05-04 19:47 48.02473 13.12857 19800 ft 334 kts 293°
2026-05-04 19:47 48.03458 13.09709 19285 ft 334 kts 293°
2026-05-04 19:47 48.04440 13.06564 18786 ft 333 kts 293°
2026-05-04 19:47 48.05429 13.03393 18278 ft 332 kts 293°
2026-05-04 19:48 48.06403 13.00264 17779 ft 332 kts 293°
2026-05-04 19:48 48.07367 12.97161 17282 ft 331 kts 293°
2026-05-04 19:48 48.08303 12.94070 16794 ft 329 kts 291°
2026-05-04 19:48 48.09089 12.90860 16302 ft 327 kts 285°
2026-05-04 19:49 48.09784 12.87615 15809 ft 326 kts 287°
2026-05-04 19:49 48.10517 12.84428 15315 ft 325 kts 287°
2026-05-04 19:49 48.11261 12.81300 14829 ft 324 kts 287°
2026-05-04 19:49 48.12024 12.78125 14334 ft 323 kts 288°
2026-05-04 19:50 48.12793 12.74937 13834 ft 322 kts 288°
2026-05-04 19:50 48.13558 12.71778 13340 ft 321 kts 288°
2026-05-04 19:50 48.14319 12.68626 12843 ft 320 kts 288°
2026-05-04 19:50 48.15069 12.65489 12349 ft 319 kts 287°
2026-05-04 19:51 48.15809 12.62379 11851 ft 319 kts 288°
2026-05-04 19:51 48.16674 12.59320 11233 ft 324 kts 296°
2026-05-04 19:51 48.17840 12.56403 10654 ft 322 kts 302°
2026-05-04 19:51 48.19038 12.53672 10247 ft 309 kts 302°
2026-05-04 19:52 48.20183 12.50991 9904 ft 295 kts 300°
2026-05-04 19:52 48.21211 12.48471 9740 ft 277 kts 299°
2026-05-04 19:52 48.22233 12.45978 9290 ft 278 kts 306°
2026-05-04 19:52 48.23651 12.44064 8915 ft 277 kts 328°
2026-05-04 19:53 48.25356 12.42730 8429 ft 280 kts 334°
2026-05-04 19:53 48.27121 12.41507 7919 ft 275 kts 335°
2026-05-04 19:53 48.28830 12.40331 7430 ft 270 kts 335°
2026-05-04 19:53 48.30524 12.39154 6936 ft 265 kts 335°
2026-05-04 19:54 48.32187 12.37984 6454 ft 260 kts 335°
2026-05-04 19:54 48.33795 12.36789 5958 ft 256 kts 329°
2026-05-04 19:54 48.35058 12.34979 5613 ft 246 kts 302°
2026-05-04 19:54 48.35729 12.33076 5444 ft 246 kts 295°
2026-05-04 19:55 48.36396 12.30851 5103 ft 245 kts 294°
2026-05-04 19:55 48.37062 12.28556 4972 ft 239 kts 292°
2026-05-04 19:55 48.37558 12.26110 4981 ft 241 kts 280°
2026-05-04 19:55 48.37649 12.23718 4982 ft 219 kts 267°
2026-05-04 19:56 48.37533 12.21599 4990 ft 203 kts 264°
2026-05-04 19:56 48.37381 12.19511 4986 ft 201 kts 264°
2026-05-04 19:56 48.37225 12.17430 4988 ft 200 kts 263°
2026-05-04 19:56 48.37067 12.15339 4990 ft 200 kts 264°
2026-05-04 19:57 48.36922 12.13253 4994 ft 200 kts 265°
2026-05-04 19:57 48.36769 12.11148 4990 ft 199 kts 264°
2026-05-04 19:57 48.36620 12.09108 4988 ft 200 kts 265°
2026-05-04 19:57 48.36468 12.06997 4955 ft 202 kts 265°
2026-05-04 19:58 48.36315 12.04901 4710 ft 204 kts 265°
2026-05-04 19:58 48.36156 12.02792 4417 ft 202 kts 265°
2026-05-04 19:58 48.36001 12.00698 4137 ft 200 kts 266°
2026-05-04 19:58 48.35849 11.98641 3872 ft 197 kts 266°
2026-05-04 19:59 48.35698 11.96641 3621 ft 181 kts 266°
2026-05-04 19:59 48.35562 11.94832 3339 ft 169 kts 267°
2026-05-04 19:59 48.35436 11.93154 3119 ft 157 kts 268°
2026-05-04 19:59 48.35315 11.91517 2929 ft 157 kts 268°
2026-05-04 20:00 48.35195 11.89909 2721 ft 154 kts 267°
2026-05-04 20:00 48.35027 11.88314 2518 ft 151 kts 266°
2026-05-04 20:00 48.34957 11.86755 2316 ft 148 kts 268°
2026-05-04 20:00 48.34845 11.85277 2116 ft 147 kts 262°
2026-05-04 20:01 48.34699 11.83746 1885 ft 147 kts 268°
2026-05-04 20:01 48.34617 11.82241 1689 ft 145 kts 264°
2026-05-04 20:01 48.34510 11.80945 1553 ft 140 kts 264°
2026-05-04 20:01 48.34395 11.79412 1597 ft 157 kts 258°
2026-05-04 20:02 48.34209 11.77934 2062 ft 176 kts 263°
2026-05-04 20:02 48.34042 11.76148 2219 ft 166 kts 265°
2026-05-04 20:02 48.33904 11.74357 2116 ft 189 kts 266°
2026-05-04 20:02 48.33796 11.72660 3074 ft 167 kts 269°